| time (UTC) | temp C | wind direction | speed KPH | gust KPH | rain 1hr cm | rain 24hr cm | rain mn cm | humidity % | barometer mb |
| 20260504201516 | 22 | 252 | 12.9 | 20.9 | 0.00 | 0.00 | 0.00 | 37 | 1005.0 |
| 20260504200015 | 22 | 255 | 17.7 | 27.4 | 0.00 | 0.00 | 0.00 | 38 | 1005.2 |
| 20260504194512 | 22 | 251 | 16.1 | 29.0 | 0.00 | 0.00 | 0.00 | 41 | 1005.4 |
| 20260504193010 | 22 | 263 | 12.9 | 30.6 | 0.00 | 0.00 | 0.00 | 42 | 1005.7 |
| 20260504191507 | 22 | 235 | 19.3 | 30.6 | 0.00 | 0.00 | 0.00 | 39 | 1005.8 |
| 20260504190006 | 22 | 300 | 9.7 | 29.0 | 0.00 | 0.00 | 0.00 | 43 | 1006.1 |
| 20260504184503 | 21 | 297 | 16.1 | 32.2 | 0.00 | 0.00 | 0.00 | 44 | 1006.2 |
| 20260504183100 | 21 | 278 | 22.5 | 35.4 | 0.00 | 0.00 | 0.00 | 43 | 1006.5 |
| 20260504181601 | 20 | 268 | 14.5 | 29.0 | 0.00 | 0.00 | 0.00 | 45 | 1006.4 |
| 20260504180058 | 21 | 275 | 19.3 | 33.8 | 0.00 | 0.00 | 0.00 | 45 | 1006.7 |
| 20260504174553 | 20 | 257 | 16.1 | 38.6 | 0.00 | 0.00 | 0.00 | 46 | 1006.8 |
| 20260504173052 | 20 | 240 | 16.1 | 32.2 | 0.00 | 0.00 | 0.00 | 47 | 1006.7 |
| 20260504171552 | 20 | 294 | 17.7 | 29.0 | 0.00 | 0.00 | 0.00 | 48 | 1006.8 |
| 20260504081534 | 11 | 271 | 6.4 | 19.3 | 0.00 | 0.00 | 0.00 | 56 | 1009.6 |
| 20260504050008 | 10 | 209 | 1.6 | 9.7 | 0.00 | 0.00 | 0.00 | 56 | 1010.7 |
| 20260504044507 | 11 | 249 | 3.2 | 14.5 | 0.00 | 0.00 | 0.00 | 56 | 1010.8 |
| 20260504043004 | 11 | 242 | 1.6 | 8.0 | 0.00 | 0.00 | 0.00 | 56 | 1010.9 |
| 20260504041504 | 11 | 219 | 3.2 | 11.3 | 0.00 | 0.00 | 0.00 | 56 | 1010.9 |
| 20260504040123 | 11 | 265 | 9.7 | 20.9 | 0.00 | 0.00 | 0.00 | 54 | 1010.9 |
| 20260504034559 | 11 | 251 | 6.4 | 19.3 | 0.00 | 0.00 | 0.00 | 55 | 1010.7 |
| 20260504033102 | 11 | 232 | 6.4 | 14.5 | 0.00 | 0.00 | 0.00 | 56 | 1010.8 |
| 20260504031600 | 11 | 229 | 6.4 | 14.5 | 0.00 | 0.00 | 0.00 | 56 | 1010.9 |
| 20260504030058 | 12 | 275 | 11.3 | 24.1 | 0.00 | 0.00 | 0.00 | 54 | 1010.9 |
| 20260504024557 | 12 | 240 | 12.9 | 32.2 | 0.00 | 0.00 | 0.00 | 53 | 1011.0 |
| 20260504023102 | 12 | 282 | 20.9 | 32.2 | 0.00 | 0.00 | 0.00 | 53 | 1011.1 |
| 20260504021557 | 12 | 238 | 14.5 | 25.7 | 0.00 | 0.00 | 0.00 | 53 | 1011.3 |
| 20260504020056 | 12 | 319 | 11.3 | 16.1 | 0.00 | 0.00 | 0.00 | 54 | 1011.3 |
| 20260504014605 | 12 | 262 | 11.3 | 20.9 | 0.00 | 0.00 | 0.00 | 55 | 1011.4 |
| 20260504013101 | 12 | 244 | 11.3 | 20.9 | 0.00 | 0.00 | 0.00 | 54 | 1011.4 |
| 20260504011555 | 11 | 297 | 11.3 | 25.7 | 0.00 | 0.00 | 0.00 | 54 | 1011.7 |
| 20260504010055 | 12 | 254 | 17.7 | 33.8 | 0.00 | 0.00 | 0.00 | 54 | 1011.7 |
| 20260504004554 | 12 | 285 | 16.1 | 41.8 | 0.00 | 0.00 | 0.00 | 51 | 1011.8 |
| 20260504003101 | 12 | 291 | 12.9 | 20.9 | 0.00 | 0.00 | 0.00 | 50 | 1011.5 |
| 20260504001602 | 12 | 267 | 19.3 | 29.0 | 0.00 | 0.00 | 0.00 | 50 | 1011.3 |
| 20260504000042 | 12 | 279 | 14.5 | 45.1 | 0.00 | 0.00 | 0.00 | 51 | 1011.4 |
| 20260503234537 | 12 | 279 | 19.3 | 35.4 | 0.00 | 0.00 | 0.00 | 49 | 1011.7 |
| 20260503233033 | 12 | 260 | 22.5 | 41.8 | 0.00 | 0.00 | 0.00 | 48 | 1011.2 |
| 20260503231528 | 13 | 245 | 19.3 | 30.6 | 0.00 | 0.00 | 0.00 | 46 | 1011.0 |
| 20260503230024 | 13 | 298 | 11.3 | 27.4 | 0.00 | 0.00 | 0.00 | 44 | 1010.9 |
| 20260503224519 | 13 | 269 | 19.3 | 33.8 | 0.00 | 0.00 | 0.00 | 43 | 1010.8 |
| 20260503223014 | 13 | 317 | 17.7 | 35.4 | 0.00 | 0.00 | 0.00 | 44 | 1011.0 |
| 20260503221511 | 13 | 319 | 19.3 | 30.6 | 0.00 | 0.00 | 0.00 | 44 | 1010.9 |
| 20260503220006 | 13 | 279 | 22.5 | 35.4 | 0.00 | 0.00 | 0.00 | 44 | 1011.0 |
| 20260503214503 | 13 | 286 | 16.1 | 24.1 | 0.00 | 0.00 | 0.00 | 45 | 1010.8 |
| 20260503213057 | 13 | 273 | 9.7 | 16.1 | 0.00 | 0.00 | 0.00 | 47 | 1010.8 |
| 20260503211553 | 13 | 294 | 14.5 | 22.5 | 0.00 | 0.00 | 0.00 | 46 | 1010.8 |
| 20260503210048 | 13 | 314 | 11.3 | 22.5 | 0.00 | 0.00 | 0.00 | 45 | 1010.9 |
| 20260503204544 | 13 | 298 | 14.5 | 24.1 | 0.00 | 0.00 | 0.00 | 44 | 1011.1 |
| 20260503203039 | 13 | 281 | 12.9 | 25.7 | 0.00 | 0.00 | 0.00 | 45 | 1011.2 |